Weather reports worldwide

Advertisment
Torino/Caselle, Italy (16059): temperature & dewpoint: 17.10.2019 05:00:00 - 23.10.2019 05:00:00 (CEST)Torino/Caselle, Italy (16059): wind speed: 17.10.2019 05:00:00 - 23.10.2019 05:00:00 (CEST)Torino/Caselle, Italy (16059): wind direction: 17.10.2019 05:00:00 - 23.10.2019 05:00:00 (CEST)Torino/Caselle, Italy (16059): reduced air pressure: 17.10.2019 05:00:00 - 23.10.2019 05:00:00 (CEST)Torino/Caselle, Italy (16059): visibility: 17.10.2019 05:00:00 - 23.10.2019 05:00:00 (CEST)Torino/Caselle, Italy (16059): precipitation: 17.10.2019 05:00:00 - 23.10.2019 05:00:00 (CEST)
Date & Time tt [°C] td [°C] ff [km/h] ff [kn] dd ppp [hPa] vv [km] rr [mm]
23.10.2019 05:00:00 13,3 13,2 2 1 - 1022,0 7 0,0
23.10.2019 04:00:00 14,0 14,0 4 2 W - 5 -
23.10.2019 03:00:00 15,0 15,0 2 1 - - 6 -
23.10.2019 02:00:00 14,6 14,6 4 2 W 1022,7 6 -
23.10.2019 01:00:00 16,0 15,0 4 2 WNW - 6 -
23.10.2019 00:00:00 16,0 16,0 5 3 NNW - 2,0 -
22.10.2019 23:00:00 16,3 16,1 4 2 WNW 1023,8 4,0 0,0
22.10.2019 22:00:00 16,0 16,0 4 2 NNW - 1,8 -
22.10.2019 21:00:00 16,0 16,0 4 2 S - 0,9 -
22.10.2019 20:00:00 17,3 16,9 5 3 W 1023,4 6 -
22.10.2019 19:00:00 18,0 17,0 2 1 WNW - 6 -
22.10.2019 18:00:00 19,0 17,0 2 1 - - 7 -
22.10.2019 17:00:00 18,4 16,8 2 1 - 1023,6 7 0,0
22.10.2019 16:00:00 19,0 17,0 4 2 - - 7 -
22.10.2019 15:00:00 19,0 17,0 4 2 - - 6 -
22.10.2019 14:00:00 17,9 16,6 2 1 - 1024,6 5 -
22.10.2019 13:00:00 17,0 17,0 8 4 N - 1,8 -
22.10.2019 12:00:00 16,0 16,0 9 5 NE - 0,8 -
22.10.2019 11:00:00 16,3 16,3 9 5 ENE 1025,0 0,6 0,0
22.10.2019 10:00:00 16,0 16,0 9 5 E - 0,6 -
22.10.2019 09:00:00 16,0 16,0 11 6 ENE - 0,8 -
22.10.2019 08:00:00 16,2 16,2 11 6 NE 1023,2 1,2 -
22.10.2019 07:00:00 16,0 16,0 8 4 NNE - 2,0 -
22.10.2019 06:00:00 16,0 16,0 8 4 NNE - 1,6 -
22.10.2019 05:00:00 16,4 16,4 8 4 NNE 1023,0 1,2 0,0
22.10.2019 04:00:00 16,0 16,0 4 2 NNE - 6 -
22.10.2019 03:00:00 16,0 16,0 5 3 N - 6 -
22.10.2019 02:00:00 16,2 16,1 8 4 NNW 1022,9 6 -
22.10.2019 01:00:00 16,0 16,0 5 3 NNW - 6 -
22.10.2019 00:00:00 16,0 16,0 5 3 WNW - 5 -
21.10.2019 23:00:00 15,9 15,9 4 2 - 1022,6 7 0,0
21.10.2019 22:00:00 16,0 16,0 2 1 - - 10 -
21.10.2019 21:00:00 16,0 16,0 8 4 NNW - 8 -
21.10.2019 20:00:00 16,1 15,9 9 5 NW 1021,7 5 -
21.10.2019 19:00:00 16,0 16,0 8 4 N - 1,6 -
21.10.2019 18:00:00 16,0 16,0 5 3 NNE - 1,6 -
21.10.2019 17:00:00 15,9 15,9 9 5 NE 1020,9 2,0 0,0
21.10.2019 16:00:00 16,0 16,0 16 9 ENE - 3,5 -
21.10.2019 15:00:00 16,0 16,0 11 6 ENE - 8 -
21.10.2019 14:00:00 16,5 16,3 5 3 NE 1021,8 8 -
21.10.2019 13:00:00 16,0 16,0 11 6 ENE - 2,5 -
21.10.2019 12:00:00 16,0 16,0 11 6 E - 1,5 -
21.10.2019 11:00:00 15,4 15,4 9 5 E 1021,5 1,5 0,0
21.10.2019 10:00:00 16,0 15,0 5 3 NE - 4,0 -
21.10.2019 09:00:00 16,0 15,0 8 4 NNW - 4,5 -
21.10.2019 08:00:00 15,3 14,9 11 6 NNW 1019,2 7 -
21.10.2019 07:00:00 15,0 15,0 15 8 ENE - 7 -
21.10.2019 06:00:00 15,0 15,0 11 6 NNE - 7 -
21.10.2019 05:00:00 15,2 15,2 11 6 NNE 1018,1 2,5 0,0
21.10.2019 04:00:00 15,0 15,0 9 5 NE - 2,0 -
21.10.2019 03:00:00 16,0 16,0 15 8 E - 2,0 -
21.10.2019 02:00:00 15,4 15,4 8 4 N 1017,5 2,0 -
21.10.2019 01:00:00 15,0 15,0 9 5 N - 6 -
21.10.2019 00:00:00 15,0 15,0 8 4 N - 8 -
20.10.2019 23:00:00 15,5 15,0 8 4 N 1018,5 8 0,0
20.10.2019 22:00:00 16,0 15,0 4 2 NW - 10 -
20.10.2019 21:00:00 15,0 15,0 5 3 N - 8 -
20.10.2019 20:00:00 15,4 15,2 4 2 - 1017,3 6 -
20.10.2019 19:00:00 15,0 15,0 8 4 NNE - 6 -
20.10.2019 18:00:00 15,0 15,0 5 3 N - 2,5 -
20.10.2019 17:00:00 15,3 15,3 4 2 N 1017,0 1,5 0,0
20.10.2019 16:00:00 15,0 15,0 8 4 NNE - 2,0 -
20.10.2019 15:00:00 15,0 15,0 5 3 NE - 1,3 -
20.10.2019 14:00:00 15,1 15,1 5 3 ENE 1017,5 1,3 -
20.10.2019 13:00:00 15,0 15,0 8 4 NNE - 2,5 -
20.10.2019 12:00:00 15,0 15,0 5 3 E - 2,5 -
20.10.2019 11:00:00 14,9 14,9 8 4 NE 1017,9 1,3 0,0
20.10.2019 10:00:00 15,0 15,0 4 2 - - 1,2 -
20.10.2019 09:00:00 15,0 15,0 4 2 ESE - 1,5 -
20.10.2019 08:00:00 14,7 14,7 4 2 - 1016,6 1,6 -
20.10.2019 07:00:00 15,0 15,0 9 5 ENE - 0,6 -
20.10.2019 06:00:00 15,0 15,0 11 6 ENE - 0,2 -
20.10.2019 05:00:00 14,9 14,9 8 4 N 1015,9 0,2 0,0
20.10.2019 04:00:00 15,0 15,0 5 3 NNE - 0,4 -
20.10.2019 03:00:00 15,0 15,0 4 2 N - 1,8 -
20.10.2019 02:00:00 14,8 14,7 8 4 NNW 1016,0 2,0 -
20.10.2019 01:00:00 15,0 15,0 2 1 - - 1,2 -
20.10.2019 00:00:00 15,0 15,0 4 2 N - 5 -
19.10.2019 23:00:00 15,0 14,4 5 3 N 1015,6 5 0,0
19.10.2019 22:00:00 15,0 14,0 5 3 NNW - 6 -
19.10.2019 21:00:00 15,0 14,0 5 3 NNW - 4,0 -
19.10.2019 20:00:00 14,7 14,4 8 4 NNW 1015,3 4,0 -
19.10.2019 19:00:00 15,0 14,0 8 4 N - 2,5 -
19.10.2019 18:00:00 15,0 14,0 8 4 NNE - 2,0 -
19.10.2019 17:00:00 14,8 14,5 8 4 NE 1014,7 2,0 0,0
19.10.2019 16:00:00 15,0 14,0 11 6 E - 6 -
19.10.2019 15:00:00 16,0 14,0 9 5 ENE - 6 -
19.10.2019 14:00:00 15,9 14,4 8 4 ENE 1015,2 6 -
19.10.2019 13:00:00 16,0 15,0 8 4 ENE - 4,0 -
19.10.2019 12:00:00 15,0 14,0 5 3 NNE - 4,0 -
19.10.2019 11:00:00 14,7 13,6 5 3 NE 1015,4 3,0 0,0
19.10.2019 10:00:00 15,0 14,0 5 3 N - 3,0 -
19.10.2019 09:00:00 14,0 13,0 9 5 NNW - 3,0 -
19.10.2019 08:00:00 13,8 13,3 8 4 NW 1014,9 2,0 -
19.10.2019 07:00:00 14,0 14,0 5 3 NNE - 2,2 -
19.10.2019 06:00:00 14,0 14,0 5 3 NNW - 3,5 -
19.10.2019 05:00:00 14,1 14,0 4 2 - 1015,2 1,4 0,0
19.10.2019 04:00:00 14,0 14,0 2 1 - - 1,8 -
19.10.2019 03:00:00 14,0 14,0 5 3 N - 2,0 -
19.10.2019 02:00:00 14,5 13,8 5 3 NNE 1016,4 4,5 -
19.10.2019 01:00:00 15,0 13,0 5 3 NNE - 8 -
19.10.2019 00:00:00 15,0 13,0 8 4 NNW - 8 -
18.10.2019 23:00:00 15,0 13,3 8 4 N 1017,1 8 0,0
18.10.2019 22:00:00 15,0 13,0 8 4 N - 7 -
18.10.2019 21:00:00 16,0 13,0 4 2 - - 6 -
18.10.2019 20:00:00 15,7 12,7 5 3 NNW 1017,2 6 -
18.10.2019 19:00:00 16,0 13,0 5 3 N - 6 -
18.10.2019 18:00:00 16,0 13,0 4 2 NNE - 6 -
18.10.2019 17:00:00 16,5 13,3 8 4 NNE 1017,5 6 0,0
18.10.2019 16:00:00 17,0 13,0 4 2 - - 6 -
18.10.2019 15:00:00 17,0 13,0 8 4 E - 6 -
18.10.2019 14:00:00 16,1 13,2 5 3 ENE 1018,0 8 -
18.10.2019 13:00:00 16,0 13,0 4 2 - - 6 -
18.10.2019 12:00:00 15,0 13,0 4 2 NNE - 5 -
18.10.2019 11:00:00 14,4 13,3 4 2 - 1018,8 5 0,0
18.10.2019 10:00:00 14,0 13,0 4 2 - - 4,5 -
18.10.2019 09:00:00 14,0 13,0 5 3 N - 4,5 -
18.10.2019 08:00:00 13,3 12,7 5 3 N 1018,0 4,0 -
18.10.2019 07:00:00 13,0 13,0 5 3 NNE - 5 -
18.10.2019 06:00:00 14,0 13,0 4 2 - - 10 -
18.10.2019 05:00:00 13,5 12,5 5 3 NNE 1018,1 10 0,0
18.10.2019 04:00:00 14,0 12,0 2 1 SE - 10 -
18.10.2019 03:00:00 14,0 12,0 4 2 NNE - 10 -
18.10.2019 02:00:00 14,5 12,0 2 1 - 1019,2 10 -
18.10.2019 01:00:00 15,0 12,0 5 3 NNW - 10 -
18.10.2019 00:00:00 15,0 12,0 2 1 - - 10 -
17.10.2019 23:00:00 14,8 12,7 4 2 - 1019,5 10 0,0
17.10.2019 22:00:00 15,0 12,0 4 2 N - 10 -
17.10.2019 21:00:00 16,0 12,0 9 5 NNW - 10 -
17.10.2019 20:00:00 16,6 12,0 4 2 NE 1019,0 10 -
17.10.2019 19:00:00 17,0 12,0 5 3 NE - 10 -
17.10.2019 18:00:00 18,0 11,0 5 3 WNW - 10 -
17.10.2019 17:00:00 18,5 10,7 4 2 - 1018,7 10 0,0
17.10.2019 16:00:00 19,0 10,0 4 2 - - 10 -
17.10.2019 15:00:00 19,0 11,0 5 3 - - 10 -
17.10.2019 14:00:00 17,8 10,9 8 4 SE 1019,6 10 -
17.10.2019 13:00:00 18,0 11,0 5 3 S - 10 -
17.10.2019 12:00:00 16,0 10,0 5 3 SE - 10 -
17.10.2019 11:00:00 15,0 10,7 8 4 SE 1020,9 10 0,0
17.10.2019 10:00:00 13,0 11,0 4 2 - - 10 -
17.10.2019 09:00:00 12,0 10,0 2 1 - - 10 -
17.10.2019 08:00:00 11,0 9,0 2 1 - - 10 -
17.10.2019 07:00:00 11,0 9,0 5 3 WNW - 10 -
17.10.2019 06:00:00 11,0 9,0 5 3 WNW - 10 -
17.10.2019 05:00:00 10,6 8,4 8 4 WNW 1019,6 10 0,0

tt = temperature
td = dewpoint
ff = wind speed
dd = wind direction
ppp = reduced air pressure
vv = visibility
rr = precipitation

Next stations